Weather History for Findlay, OH

Change the Weather History Date:

Sunday, February 17, 2013

  Actual Average Record
Temperature  
Mean Temperature 18 °F -  
Max Temperature 25 °F 33 °F 55 °F (2006)
Min Temperature 12 °F 20 °F -11 °F (1973)
Degree Days  
Heating Degree Days 46    
Moisture  
Dew Point 9 °F    
Average Humidity 69    
Maximum Humidity 85    
Minimum Humidity 45    
Precipitation  
Precipitation 0.00 in - - ()
Sea Level Pressure  
Sea Level Pressure 30.16 in    
Wind  
Wind Speed 8 mph (WNW)    
Max Wind Speed 13 mph    
Max Gust Speed -    
Visibility 10 miles    
Events Snow    
Averages and records for this station are not official NWS values.
T = Trace of Precipitation, MM = Missing Value Source: NWS Daily Summary

Daily Weather History Graph

Daily Weather History Graph

Search for Another Location

Airport:

Trip Planner

Search our weather history database for the weather conditions in past years. The results will help you decide how hot, cold, wet, or windy it might be!

Date:

Astronomy

Feb. 17, 2013 Rise Set
Actual Time 7:26 AM EST 6:11 PM EST
Civil Twilight 6:57 AM EST 6:39 PM EST
Nautical Twilight 6:25 AM EST 7:12 PM EST
Astronomical Twilight 5:54 AM EST 7:43 PM EST
Moon 11:14 AM EST (2/17) 1:10 AM EST (2/17)
Length of Visible Light 11h 41m
Length of Day
10h 45m
Waxing Crescent, 49% of the Moon is Illuminated
Feb 17
Waxing Crescent
Feb 17
First Quarter
Feb 25
Full
Mar 4
Last Quarter
Mar 11
New

Hourly Weather History & Observations

Time (EST) Temp. Windchill Dew Point Humidity Pressure Visibility Wind Dir Wind Speed Gust Speed Precip Events Conditions
12:53 AM 15.1 °F 2.5 °F 7.0 °F 70% 30.08 in 10.0 mi WNW 10.4 mph - N/A   Partly Cloudy
1:53 AM 14.0 °F 2.0 °F 8.1 °F 77% 30.09 in 10.0 mi WNW 9.2 mph - N/A   Partly Cloudy
2:44 AM 15.8 °F 5.1 °F 8.6 °F 73% 30.06 in 10.0 mi WNW 8.1 mph - N/A   Overcast
2:53 AM 15.1 °F 4.2 °F 9.0 °F 77% 30.09 in 10.0 mi WNW 8.1 mph - N/A   Mostly Cloudy
3:00 AM 14.0 °F 2.9 °F 8.6 °F 79% 30.06 in 10.0 mi West 8.1 mph - N/A   Scattered Clouds
3:53 AM 14.0 °F 2.9 °F 9.0 °F 80% 30.09 in 10.0 mi West 8.1 mph - N/A   Clear
4:41 AM 14.0 °F 2.9 °F 8.6 °F 79% 30.07 in 10.0 mi WNW 8.1 mph - N/A   Mostly Cloudy
4:53 AM 14.0 °F 2.9 °F 10.0 °F 84% 30.11 in 10.0 mi West 8.1 mph - N/A   Overcast
5:53 AM 14.0 °F 2.9 °F 9.0 °F 80% 30.12 in 10.0 mi West 8.1 mph - N/A   Overcast
6:21 AM 12.2 °F 1.7 °F 8.6 °F 85% 30.10 in 10.0 mi West 6.9 mph - N/A   Scattered Clouds
6:53 AM 12.9 °F 1.6 °F 9.0 °F 84% 30.14 in 10.0 mi West 8.1 mph - N/A   Clear
7:20 AM 12.2 °F 4.3 °F 8.6 °F 85% 30.12 in 10.0 mi WNW 4.6 mph - N/A   Mostly Cloudy
7:53 AM 15.1 °F 4.2 °F 10.9 °F 84% 30.17 in 7.0 mi WNW 8.1 mph - N/A   Overcast
8:10 AM 15.8 °F 4.2 °F 10.4 °F 79% 30.14 in 9.0 mi NW 9.2 mph - N/A   Overcast
8:53 AM 17.1 °F 8.7 °F 10.9 °F 77% 30.19 in 10.0 mi NW 5.8 mph - N/A   Mostly Cloudy
9:07 AM 17.6 °F 9.3 °F 10.4 °F 73% 30.16 in 10.0 mi WNW 5.8 mph - N/A   Scattered Clouds
9:16 AM 17.6 °F 7.3 °F 10.4 °F 73% 30.16 in 10.0 mi WNW 8.1 mph - N/A   Mostly Cloudy
9:29 AM 17.6 °F 12.3 °F 10.4 °F 73% 30.16 in 10.0 mi WNW 3.5 mph - N/A   Mostly Cloudy
9:53 AM 17.1 °F 5.8 °F 10.0 °F 74% 30.20 in 7.0 mi WNW 9.2 mph - 0.00 in Snow Light Snow
10:53 AM 19.0 °F 6.8 °F 9.0 °F 65% 30.22 in 10.0 mi West 11.5 mph - 0.00 in   Overcast
11:53 AM 21.9 °F 13.4 °F 9.0 °F 58% 30.22 in 10.0 mi NNW 6.9 mph - N/A   Mostly Cloudy
12:22 PM 23.0 °F 13.9 °F 8.6 °F 54% 30.19 in 10.0 mi NNW 8.1 mph - N/A   Mostly Cloudy
12:53 PM 23.0 °F 13.1 °F 8.1 °F 53% 30.21 in 10.0 mi NW 9.2 mph - N/A   Mostly Cloudy
1:53 PM 24.1 °F 13.7 °F 7.0 °F 48% 30.20 in 10.0 mi NW 10.4 mph - N/A   Overcast
2:53 PM 24.1 °F 12.5 °F 6.1 °F 46% 30.19 in 10.0 mi NW 12.7 mph - N/A   Overcast
3:53 PM 25.0 °F 15.5 °F 6.1 °F 45% 30.20 in 10.0 mi NW 9.2 mph - N/A   Scattered Clouds
4:53 PM 25.0 °F 15.5 °F 7.0 °F 46% 30.20 in 10.0 mi WNW 9.2 mph - N/A   Overcast
5:53 PM 24.1 °F 16.0 °F 7.0 °F 48% 30.21 in 10.0 mi WSW 6.9 mph - N/A   Overcast
6:53 PM 21.9 °F 14.5 °F 8.1 °F 55% 30.22 in 10.0 mi WSW 5.8 mph - N/A   Partly Cloudy
7:53 PM 17.1 °F 8.7 °F 9.0 °F 71% 30.22 in 10.0 mi South 5.8 mph - N/A   Clear
8:53 PM 19.9 °F 13.4 °F 9.0 °F 62% 30.22 in 10.0 mi SSE 4.6 mph - N/A   Clear
9:53 PM 18.0 °F 8.7 °F 9.0 °F 68% 30.22 in 10.0 mi SSE 6.9 mph - N/A   Clear
10:53 PM 18.0 °F 9.8 °F 9.0 °F 68% 30.22 in 10.0 mi SSE 5.8 mph - N/A   Clear